Regional Weather Roundup
Issued by NWS Sioux Falls, SD

Home | Current Version | Previous Version | Text Only | Print | Product List | Glossary On
Versions: 1 2 3 4 5 6 7 8 9 10 11 12 13 14 15 16 17 18 19 20 21 22 23 24 25 26 27 28 29 30 31 32 33 34 35 36 37 38 39 40 41 42 43 44 45 46 47 48 49 50
000
ASUS43 KFSD 211710
RWRFSD

WEATHER ROUNDUP FOR SE SOUTH DAKOTA/SW MINNESOTA/NW IOWA
NATIONAL WEATHER SERVICE SIOUX FALLS SD
1200 PM CDT MON MAY 21 2018

NOTE: "FAIR" INDICATES FEW OR NO CLOUDS BELOW 12,000 FEET WITH NO
SIGNIFICANT WEATHER AND OR OBSTRUCTIONS TO VISIBILITY.


SDZ038>040-050-052>070-211800-
SOUTHEAST SOUTH DAKOTA

CITY           SKY/WX    TMP DP  RH WIND       PRES   REMARKS
BROOKINGS      CLOUDY    59  55  87 S6        30.03F
CHAMBERLAIN    SUNNY     67  49  51 S5        30.00F
HURON          CLOUDY    58  54  86 SW6       30.02S
MADISON        CLOUDY    57  57 100 S6        30.03S
MITCHELL       CLOUDY    60  54  80 CALM      30.03F
SIOUX FALLS    CLOUDY    59  56  89 SW3       30.03S
WINNER         FAIR      68  43  40 S5        30.01S
YANKTON        CLOUDY    60  54  80 CALM      30.04S
$$

MNZ071-072-080-081-089-090-097-098-211800-
SOUTHWEST MINNESOTA

CITY           SKY/WX    TMP DP  RH WIND       PRES   REMARKS
FAIRMONT       CLOUDY    59  57  93 SE5       30.05S
JACKSON        CLOUDY    55  55 100 SE6       30.05F FOG
LUVERNE        CLOUDY    57  54  88 S3        30.04S
MARSHALL       CLOUDY    58  56  93 E6        30.04S
MONTEVIDEO     LGT RAIN  57  57 100 S7        30.04F
PIPESTONE        N/A     61  57  88 CALM      30.02F
REDWOOD FALLS  CLOUDY    59  57  93 SE8       30.04F
TRACY          CLOUDY    59  57  94 SE5       30.04S
WINDOM         CLOUDY    57  43  58 SE5       30.04S HAZE
WORTHINGTON    LGT RAIN  56  56 100 SE7       30.05S FOG
$$

IAZ001>003-012>014-020>022-031-032-NEZ013-014-SDZ071-211800-
NORTHWEST IOWA

CITY           SKY/WX    TMP DP  RH WIND       PRES   REMARKS
CHEROKEE       RAIN      59  59 100 CALM      30.04S
DENISON        PTSUNNY   64  63  94 S3        30.04F
ESTHERVILLE    CLOUDY    59  56  89 S3        30.03F
ORANGE CITY    CLOUDY    61  57  88 CALM      30.04S FOG
SHELDON        CLOUDY    59  59 100 CALM      30.02S
SIOUX CITY     CLOUDY    63  57  81 NW7       30.03F
SPENCER        CLOUDY    59  56  89 SE7       30.04S FOG
STORM LAKE     PTSUNNY   59  59 100 CALM      30.03F FOG
$$

ABBREVIATIONS USED IN REMARKS
   TC - TEMPERATURE IN CELSIUS
  WCI - WIND CHILL INDEX
   HX - HEAT INDEX
  VSB - VISIBILITY





USA.gov is the U.S. government's official web portal to all federal, state and local government web resources and services.